{"data":{"norad_id":58786,"epoch":"2026-09-20T11:50:19.550976Z","epoch_age_seconds":153056,"freshness":"FRESH","line1":"1 58786U 24011X   26263.49328184 -.00000303  00000+0  21651-5 0  9996","line2":"2 58786  53.1598 185.4360 0001472  93.0043 267.1128 15.34383220150146","mean_motion":15.3438322,"eccentricity":0.0001472,"inclination_deg":53.1598,"raan_deg":185.436,"arg_perigee_deg":93.0043,"mean_anomaly_deg":267.1128,"bstar":2.1651e-6,"rev_number":15014,"period_min":93.848784399506,"perigee_km":461.74613533301,"apogee_km":463.76009338268,"semimajor_km":6840.8901143578,"source":"CELESTRAK","updated_at":"2026-09-21T09:00:33.978516Z"}}